Simultaneous Nadir Overpasses (SNOs) Predictions

Prediction of SNOs between GOES-17 and METOP-B Satellite Orbit:

Table of predicted SNOs for the next 14.0 days since TLE Epoch: 8/31/2024
Index Date Time (GOES-17) GOES-17 Lat,Lon METOP-B Lat,Lon Distance(km) Time Diff (sec)
1 09/02/2024 04:19:57 -0.00,-104.67 -0.02,-104.82 15.94 80
2 09/04/2024 16:18:09 -0.00,-104.72 -0.10,-104.41 36.36 80
3 09/06/2024 04:37:09 0.00,-104.68 -0.98,-109.01 493.84 80
4 09/07/2024 04:13:49 0.00,-104.68 0.14,-104.02 74.57 80
5 09/08/2024 16:32:40 0.00,-104.72 0.88,-108.59 441.65 80
6 09/09/2024 16:14:41 0.01,-104.72 -0.24,-103.61 126.77 80
7 09/11/2024 04:33:40 -0.01,-104.67 -0.81,-108.21 403.43 80
8 09/12/2024 04:10:21 -0.02,-104.67 0.33,-103.23 164.72 80
9 09/13/2024 16:29:11 0.02,-104.71 0.73,-107.79 352.05 80
